Location: Asheville, NC
(35.6000°N, 82.5500°W)
Time: 16:10:41
(UTC-05:00)

Vanguard 2 - Pass Details

Date: 08 December 2017
Orbit: 552 x 2940 km, 32.9° (Epoch: 16 January)

Event Time Altitude Azimuth Distance (km) Brightness Sun altitude
Rises 20:59:22 0° 271° (W) 2,724 11.1 -44.4°
Enters shadow 20:59:48 - 270° (W) 2,544 11.0 -44.5°
Reaches altitude 10° 21:01:34 10° 265° (W) 1,817 - -44.9°
Maximum altitude 21:05:21 46° 191° (S) 794 - -45.6°
Drops below altitude 10° 21:09:55 10° 118° (ESE) 2,193 - -46.5°
Sets 21:12:49 0° 112° (ESE) 3,374 - -47.1°
